GW4020 Weather Reports


time (UTC)temp
C
wind
direction
speed
KPH
gust
KPH
rain 1hr
cm
rain 24hr
cm
rain mn
cm
humidity
%
barometer
mb
20260504090122 0 351 0.0 0.0 0.00 0.00 0.00 93 1012.0
20260504081552 0 351 0.0 0.0 0.00 0.00 0.00 94 1012.3
20260504081048 0 351 0.0 0.0 0.00 0.00 0.00 95 1012.1
20260504080545 -1 351 0.0 0.0 0.00 0.00 0.00 94 1012.6
20260504050352 0 351 0.0 0.0 0.00 0.00 0.00 90 1012.3
20260504045849 0 351 0.0 0.0 0.00 0.00 0.00 90 1012.5
20260504045343 0 351 0.0 0.0 0.00 0.00 0.00 89 1012.5
20260504044841 0 351 0.0 0.0 0.00 0.00 0.00 89 1012.5
20260504044339 0 351 0.0 0.0 0.00 0.00 0.00 89 1012.5
20260504043836 0 351 0.0 0.0 0.00 0.00 0.00 89 1012.7
20260504043332 0 351 0.0 0.0 0.00 0.00 0.00 89 1012.6
20260504042830 0 351 0.0 0.0 0.00 0.00 0.00 89 1012.6
20260504042326 0 351 0.0 0.0 0.00 0.00 0.00 89 1012.5
20260504041822 0 351 0.0 0.0 0.00 0.00 0.00 89 1012.5
20260504041318 0 351 0.0 0.0 0.00 0.00 0.00 89 1012.5
20260504040814 0 351 0.0 0.0 0.00 0.00 0.00 89 1012.3
20260504040312 0 351 0.0 0.0 0.00 0.00 0.00 89 1012.5
20260504035808 0 351 0.0 0.0 0.00 0.00 0.00 88 1012.6
20260504035305 0 351 0.0 0.0 0.00 0.00 0.00 88 1012.8
20260504034802 0 351 0.0 0.0 0.00 0.00 0.00 87 1012.5
20260504034300 0 351 0.0 0.0 0.00 0.00 0.00 86 1012.6
20260504033757 0 351 0.0 0.0 0.00 0.00 0.00 86 1012.5
20260504033255 0 351 0.0 0.0 0.00 0.00 0.00 86 1012.7
20260504032752 0 351 0.0 0.0 0.00 0.00 0.00 86 1012.7
20260504032249 0 351 0.0 0.0 0.00 0.00 0.00 86 1012.6
20260504031745 0 351 0.0 0.0 0.00 0.00 0.00 86 1012.7
20260504031243 1 351 0.0 0.0 0.00 0.00 0.00 85 1012.7
20260504030738 1 351 0.0 0.0 0.00 0.00 0.00 84 1012.6
20260504030236 1 351 0.0 0.0 0.00 0.00 0.00 84 1012.6
20260504025732 1 351 0.0 0.0 0.00 0.00 0.00 83 1012.7
20260504025229 1 351 0.0 0.0 0.00 0.00 0.00 83 1012.7
20260504024726 1 351 0.0 0.0 0.00 0.00 0.00 83 1012.7
20260504024222 1 351 0.0 0.0 0.00 0.00 0.00 81 1012.6
20260504023720 2 351 0.0 0.0 0.00 0.00 0.00 79 1012.7
20260504023215 2 351 0.0 0.0 0.00 0.00 0.00 79 1012.8
20260504022712 2 351 0.0 0.0 0.00 0.00 0.00 79 1012.6
20260504022208 2 351 0.0 0.0 0.00 0.00 0.00 78 1012.6
20260504021706 2 351 0.0 0.0 0.00 0.00 0.00 77 1012.6
20260504021202 2 351 0.0 0.0 0.00 0.00 0.00 76 1012.6
20260504020659 2 351 0.0 0.0 0.00 0.00 0.00 76 1012.7
20260504020155 2 351 0.0 0.0 0.00 0.00 0.00 75 1012.6
20260504015652 3 351 0.0 0.0 0.00 0.00 0.00 75 1012.7
20260504015148 3 351 0.0 0.0 0.00 0.00 0.00 75 1012.6
20260504014644 3 351 0.0 0.0 0.00 0.00 0.00 75 1012.5
20260504014141 3 350 0.0 0.0 0.00 0.00 0.00 75 1012.6
20260504013639 3 350 0.0 0.0 0.00 0.00 0.00 75 1012.3
20260504013136 3 351 0.0 0.0 0.00 0.00 0.00 75 1012.3
20260504012633 3 351 0.0 0.0 0.00 0.00 0.00 75 1012.5
20260504012131 4 351 0.0 0.0 0.00 0.00 0.00 72 1012.3
20260504011627 5 351 0.0 0.0 0.00 0.00 0.00 70 1012.3
20260504011124 5 351 0.0 0.0 0.00 0.00 0.00 70 1012.3
20260504010620 5 351 0.0 0.0 0.00 0.00 0.00 67 1012.1
20260504010116 5 351 0.0 0.0 0.00 0.00 0.00 66 1012.0
20260504005613 5 350 0.0 0.0 0.00 0.00 0.00 67 1012.0
20260504005110 6 350 0.0 0.0 0.00 0.00 0.00 64 1012.0
20260504004608 6 350 0.0 0.0 0.00 0.00 0.00 64 1012.0
20260504004105 6 349 0.0 0.0 0.00 0.00 0.00 62 1011.9
20260504003600 6 353 0.0 0.0 0.00 0.00 0.00 64 1011.8
20260504003057 6 353 0.0 0.0 0.00 0.00 0.00 63 1011.8
20260504002554 6 354 0.0 0.0 0.00 0.00 0.00 62 1011.6
20260504002052 7 355 0.0 0.0 0.00 0.00 0.00 60 1011.7
20260504001550 7 357 0.0 0.0 0.00 0.00 0.00 58 1011.6
20260504001045 7 358 0.0 0.0 0.00 0.00 0.00 57 1011.6
20260504000543 8 355 0.0 0.0 0.00 0.00 0.00 57 1011.6
20260504000040 9 329 0.0 0.0 0.00 0.00 0.00 55 1011.6
20260503235538 10 354 0.0 0.0 0.00 0.00 0.00 53 1011.3
20260503235035 10 321 1.6 3.2 0.00 0.00 0.00 49 1011.5
20260503234532 10 301 1.6 3.2 0.00 0.00 0.00 47 1011.4
20260503234031 10 239 6.4 6.4 0.00 0.00 0.00 44 1011.4
20260503233527 10 297 3.2 3.2 0.00 0.00 0.00 45 1011.5
20260503233023 11 325 3.2 3.2 0.00 0.00 0.00 45 1011.3
20260503232520 11 282 3.2 3.2 0.00 0.00 0.00 44 1011.4
20260503232017 11 310 3.2 3.2 0.00 0.00 0.00 44 1011.3
20260503231515 11 337 0.0 1.6 0.00 0.00 0.00 46 1011.3
20260503231012 11 336 4.8 4.8 0.00 0.00 0.00 43 1011.4
20260503230508 11 311 1.6 3.2 0.00 0.00 0.00 44 1011.3
20260503230006 11 281 6.4 6.4 0.00 0.00 0.00 43 1011.1
20260503225503 11 301 3.2 3.2 0.00 0.00 0.00 43 1011.3
20260503224958 11 325 8.0 12.9 0.00 0.00 0.00 43 1011.2
20260503224455 11 284 4.8 6.4 0.00 0.00 0.00 42 1011.2
20260503223953 11 307 3.2 3.2 0.00 0.00 0.00 43 1011.0
20260503223451 11 250 4.8 4.8 0.00 0.00 0.00 43 1011.3
20260503222946 11 325 0.0 1.6 0.00 0.00 0.00 46 1011.2
20260503222445 11 353 4.8 4.8 0.00 0.00 0.00 44 1011.2
20260503221942 11 344 6.4 9.7 0.00 0.00 0.00 44 1011.3
20260503221440 11 331 6.4 9.7 0.00 0.00 0.00 44 1011.2
20260503220937 11 296 3.2 4.8 0.00 0.00 0.00 42 1011.3
20260503220433 11 312 3.2 3.2 0.00 0.00 0.00 43 1011.4
20260503215931 11 265 6.4 6.4 0.00 0.00 0.00 44 1011.4
20260503215427 11 240 3.2 4.8 0.00 0.00 0.00 44 1011.4
20260503214925 11 331 4.8 9.7 0.00 0.00 0.00 46 1011.4
20260503214423 11 335 4.8 6.4 0.00 0.00 0.00 45 1011.4
20260503213920 11 323 4.8 6.4 0.00 0.00 0.00 43 1011.3
20260503213418 11 352 6.4 9.7 0.00 0.00 0.00 44 1011.2
20260503212914 11 295 4.8 6.4 0.00 0.00 0.00 43 1011.1
20260503212412 11 341 8.0 11.3 0.00 0.00 0.00 42 1011.2
20260503211909 11 328 17.7 22.5 0.00 0.00 0.00 43 1011.1
20260503211405 11 310 12.9 20.9 0.00 0.00 0.00 43 1011.2
20260503210901 11 342 9.7 11.3 0.00 0.00 0.00 43 1010.8
20260503210358 11 337 8.0 9.7 0.00 0.00 0.00 43 1011.2
20260503205853 11 296 3.2 4.8 0.00 0.00 0.00 44 1011.2
20260503205350 11 313 11.3 14.5 0.00 0.00 0.00 43 1011.1
20260503204846 11 346 9.7 14.5 0.00 0.00 0.00 44 1011.3
20260503204343 11 337 6.4 9.7 0.00 0.00 0.00 43 1011.2
20260503203841 11 316 12.9 14.5 0.00 0.00 0.00 42 1011.1
20260503203338 11 267 6.4 6.4 0.00 0.00 0.00 42 1011.2
20260503202835 11 339 4.8 6.4 0.00 0.00 0.00 42 1011.2
20260503202333 11 330 11.3 14.5 0.00 0.00 0.00 42 1011.3
20260503201831 11 348 12.9 16.1 0.00 0.00 0.00 41 1011.3
20260503201328 11 267 11.3 12.9 0.00 0.00 0.00 41 1011.3
20260503200825 11 263 9.7 11.3 0.00 0.00 0.00 42 1011.3
20260503200321 11 346 14.5 16.1 0.00 0.00 0.00 40 1011.3
20260503195819 11 275 11.3 14.5 0.00 0.00 0.00 40 1011.5
20260503195315 12 306 8.0 11.3 0.00 0.00 0.00 40 1011.0
20260503194813 11 268 11.3 14.5 0.00 0.00 0.00 40 1011.3
20260503194308 11 348 11.3 12.9 0.00 0.00 0.00 41 1011.3
20260503193804 11 348 12.9 17.7 0.00 0.00 0.00 41 1011.5
20260503193300 11 269 6.4 6.4 0.00 0.00 0.00 39 1011.4
20260503192756 11 255 6.4 9.7 0.00 0.00 0.00 42 1011.5
20260503192252 11 261 9.7 16.1 0.00 0.00 0.00 43 1011.5
20260503191749 11 310 17.7 20.9 0.00 0.00 0.00 39 1011.5
20260503191246 11 332 19.3 25.7 0.00 0.00 0.00 39 1011.6
20260503190742 11 239 9.7 14.5 0.00 0.00 0.00 40 1011.5
20260503190239 11 286 6.4 6.4 0.00 0.00 0.00 38 1011.6
20260503185737 11 285 9.7 12.9 0.00 0.00 0.00 39 1011.7
20260503185232 11 270 9.7 11.3 0.00 0.00 0.00 39 1011.7
20260503184727 11 341 8.0 11.3 0.00 0.00 0.00 40 1011.9
20260503184223 11 272 12.9 16.1 0.00 0.00 0.00 37 1012.0
20260503183720 11 276 8.0 9.7 0.00 0.00 0.00 37 1012.1
20260503183217 10 334 1.6 1.6 0.00 0.00 0.00 42 1012.0
20260503182716 10 0 4.8 6.4 0.00 0.00 0.00 38 1012.0
20260503182214 11 337 8.0 12.9 0.00 0.00 0.00 38 1011.9
20260503181710 11 298 9.7 12.9 0.00 0.00 0.00 39 1012.1
20260503181207 10 276 11.3 16.1 0.00 0.00 0.00 39 1012.1
20260503180703 10 15 11.3 12.9 0.00 0.00 0.00 39 1012.1
20260503180202 10 267 6.4 6.4 0.00 0.00 0.00 40 1012.0
20260503175658 10 289 6.4 6.4 0.00 0.00 0.00 40 1012.3
20260503175156 10 266 4.8 6.4 0.00 0.00 0.00 39 1012.3
20260503174652 10 251 9.7 12.9 0.00 0.00 0.00 40 1012.3
20260503174150 9 304 9.7 14.5 0.00 0.00 0.00 43 1012.6
20260503173644 9 219 6.4 9.7 0.00 0.00 0.00 43 1012.6
20260503173141 10 329 11.3 16.1 0.00 0.00 0.00 40 1012.6
20260503172638 10 326 6.4 9.7 0.00 0.00 0.00 41 1012.7
20260503172130 8 324 11.3 16.1 0.00 0.00 0.00 43 1012.7
20260503171626 8 300 6.4 6.4 0.00 0.00 0.00 45 1012.8
20260503171123 8 330 16.1 24.1 0.00 0.00 0.00 44 1012.9
20260503170621 7 353 12.9 16.1 0.00 0.00 0.00 45 1012.9
20260503170117 8 247 12.9 20.9 0.00 0.00 0.00 44 1013.1
20260503151012 6 343 20.9 24.1 0.00 0.00 0.00 48 1013.7
20260503150508 6 265 6.4 6.4 0.00 0.00 0.00 47 1013.5
20260503131355 5 339 4.8 6.4 0.00 0.00 0.00 49 1013.9
20260503130852 4 336 12.9 14.5 0.00 0.00 0.00 52 1014.0
20260503130350 4 354 6.4 6.4 0.00 0.00 0.00 54 1013.8
20260503110750 1 325 1.6 3.2 0.00 0.00 0.00 81 1013.2
20260503110247 1 311 1.6 3.2 0.00 0.00 0.00 82 1013.3
20260503100213 0 328 1.6 1.6 0.00 0.00 0.00 85 1012.6